Location: Bismarck
(46.7731°N, 100.8200°W)
Time: 01:41:49
(UTC-05:00)

Landsat 7 - Visible Passes

Search period start: 31 March 2015 00:00
Search period end: 10 April 2015 00:00
Orbit: 702 x 703 km, 98.2° (Epoch: 30 March)

Date Brightness Start Highest point End Pass type
(mag) Time Alt. Az. Time Alt. Az. Time Alt. Az.
31 Mar 4.4 23:01:14 49° NNE 23:01:14 49° NNE 23:04:59 10° N visible
01 Apr 6.4 00:40:06 15° WNW 00:40:06 15° WNW 00:41:34 10° NW visible
01 Apr 5.3 22:05:30 21° ENE 22:05:36 21° ENE 22:09:10 10° NNE visible
01 Apr 5.0 23:44:23 40° NW 23:44:23 40° NW 23:47:44 10° NNW visible
02 Apr 4.4 22:48:39 44° NE 22:48:39 44° NE 22:52:40 10° N visible
03 Apr 6.1 00:27:33 19° WNW 00:27:33 19° WNW 00:29:47 10° NW visible
03 Apr 5.5 21:52:56 16° ENE 21:53:31 17° ENE 21:56:33 10° NNE visible
03 Apr 4.5 23:31:49 53° NW 23:31:49 53° NW 23:35:34 10° NNW visible
04 Apr 4.6 22:36:05 36° ENE 22:36:05 36° ENE 22:40:17 10° N visible
05 Apr 5.7 00:14:58 25° WNW 00:14:58 25° WNW 00:17:52 10° NW visible
05 Apr 5.8 21:40:22 12° ENE 21:41:25 13° ENE 21:43:44 10° NNE visible
05 Apr 4.1 23:19:15 65° N 23:19:15 65° N 23:23:20 10° NNW visible
06 Apr 6.6 00:58:07 11° WNW 00:58:07 11° WNW 00:58:34 10° WNW visible
06 Apr 4.8 22:23:31 29° ENE 22:23:45 29° ENE 22:27:52 10° N visible
07 Apr 5.3 00:02:24 33° WNW 00:02:24 33° WNW 00:05:50 10° NNW visible
07 Apr 6.0 21:28:39 10° ENE 21:29:21 10° NE 21:30:16 10° NE visible
07 Apr 3.9 23:06:40 66° NE 23:06:40 66° NE 23:11:04 10° N visible
08 Apr 6.3 00:45:32 14° WNW 00:45:32 14° WNW 00:47:19 10° NW visible
08 Apr 5.1 22:10:56 22° ENE 22:11:36 23° ENE 22:15:22 10° NNE visible
08 Apr 4.7 23:49:50 44° WNW 23:49:50 44° WNW 23:53:44 10° NNW visible
09 Apr 4.0 22:54:06 53° ENE 22:54:06 53° ENE 22:58:45 10° N visible
